Location: Milton Keynes
(52.0316°N, 0.7531°W)
Time: 12:13:34
(UTC+00:00)

Envisat - Pass Details

Date: 26 January 2019
Orbit: 764 x 766 km, 98.2° (Epoch: 20 February)

Event Time Altitude Azimuth Distance (km) Brightness Sun altitude
Rises 06:20:44 0° 26° (NNE) 3,246 6.4 -13.9°
Reaches altitude 10° 06:23:54 10° 47° (NE) 2,313 6.0 -13.4°
Maximum altitude 06:27:08 17° 87° (E) 1,878 6.1 -12.9°
Drops below altitude 10° 06:30:22 10° 127° (SE) 2,301 6.7 -12.5°
Sets 06:33:30 0° 147° (SSE) 3,221 7.0 -12.0°
